Regional Weather Roundup
Issued by NWS

Current Version | Previous Version | Text Only | Print | Product List | Glossary On
Versions: 1 2 3 4 5 6 7 8 9 10 11 12 13 14 15 16 17 18 19 20 21 22 23 24 25 26 27 28 29 30 31 32 33 34 35 36 37 38 39 40 41 42 43 44 45 46 47 48 49 50
114
ASUS44 KFWD 191015
RWRTX
NORTH TEXAS HOURLY WEATHER ROUNDUP
NATIONAL WEATHER SERVICE FORT WORTH TX
500 AM CDT FRI JUL 19 2019

NOTE: "FAIR" INDICATES FEW OR NO CLOUDS BELOW 12,000 FEET WITH NO
SIGNIFICANT WEATHER AND/OR OBSTRUCTIONS TO VISIBILITY.

TXZ118-119-191100-
DALLAS/FORT WORTH METROPLEX

CITY           SKY/WX    TMP DP  RH WIND       PRES   REMARKS
DFW AIRPORT    FAIR      80  72  76 S15       29.92S
DALLAS LOVE    FAIR      82  72  71 S9G18     29.93S
FTW MEACHAM    FAIR      79  72  79 S14       29.92S
DAL-EXECUTIVE  FAIR      78  72  81 S9        29.93S
FTW-ALLIANCE   FAIR      81  72  74 S13       29.92S
FTW-NAS-JRB    FAIR      81  71  71 S13       29.93R
FTW-SPINKS     FAIR      78  71  78 S9        29.95S
ARLINGTON      FAIR      80  72  76 S9        29.93S
GRAND PRAIRIE  FAIR      80  71  74 S6        29.95S
ADDISON        FAIR      81  72  74 S8G16     29.95S
MESQUITE       FAIR      77  73  85 S10       29.95S
LANCASTER      FAIR      78  72  82 S9        29.95S
$$

TXZ091>094-102>105-117-120-121-131>134-191100-
NORTH CENTRAL TEXAS

CITY           SKY/WX    TMP DP  RH WIND       PRES   REMARKS
SHRMAN/DENISON FAIR      80  74  82 S10       29.93S
GAINESVILLE    FAIR      77  72  83 S6        29.94R
BOWIE          FAIR      77  71  82 SE8       29.92R
BRIDGEPORT     FAIR      80  68  67 S10G16    29.93S
DECATUR        FAIR      79  72  77 S13       29.93S HAZE
DENTON         FAIR      80  71  74 S13       29.93R
MCKINNEY       FAIR      81  73  76 S10       29.93F
BONHAM         FAIR      79  73  84 S13       29.94S
GREENVILLE     FAIR      81  73  78 S9        29.96R
ROCKWALL       FAIR      79  72  80 SW9       29.95S
TERRELL        FAIR      79  72  79 S7        29.96R
WAXAHACHIE     FAIR      76  73  87 S7        29.96S
CLEBURNE       FAIR      77  75  94 S12       29.96S
GRANBURY       FAIR      81  69  68 S12G18    29.94F
$$

TXZ083>090-098>101-113>116-127>130-139>142-154-155-191100-
WESTERN NORTH TEXAS

CITY           SKY/WX    TMP DP  RH WIND       PRES   REMARKS
WICHITA FALLS  FAIR      80  70  71 S15       29.87S
WF-KICKAPOO    FAIR      80  69  69 S10       29.90S
VERNON         FAIR      82  66  57 S13       29.88S
ABILENE        FAIR      79  71  76 S13       29.94S
ABILENE-DYESS  FAIR      78  66  64 SE17      29.93S
GRAHAM         FAIR      80  70  72 S8        29.90S
BRECKENRIDGE   FAIR      81  67  63 MISG      29.92S
CISCO          FAIR      77  68  73 S13G21    29.96S
EASTLAND       FAIR      76  68  75 S8        29.95S
RANGER         FAIR      76  68  76 S7        29.96S
MINERAL WELLS  FAIR      77  67  71 S8        29.92S
STEPHENVILLE   FAIR      76  67  74 S5        29.98F
COMANCHE       FAIR      76  68  75 S12       29.96S
BROWNWOOD      MOCLDY    77  68  73 S8        29.96S
COLEMAN        FAIR      76  65  68 S9        29.97R
BRADY          MOCLDY    75  66  73 S10       29.97S
$$

TXZ143>147-156>162-174-175-191100-
CENTRAL TEXAS

CITY           SKY/WX    TMP DP  RH WIND       PRES   REMARKS
WACO           FAIR      78  73  84 S10       29.95S
HILLSBORO      FAIR      78  76  94 S10       29.95S
CORSICANA      FAIR      76  73  91 S7        29.97S
MEXIA          FAIR      74  73  95 S5        29.97S
HEARNE         MOCLDY    75  75 100 SE6       29.97S
CAMERON        CLOUDY    77  74  92 S5        29.96S
TEMPLE         FAIR      76  76 100 S13       29.97R
KILLEEN        FAIR      75  69  82 S8        29.96S
KILLEEN-SKYLRK FAIR      76  71  85 MISG      29.97S
FORT HOOD      FAIR      76  70  82 S7        29.93R
GATESVILLE     FAIR      77  70  78 SE5       29.98S
HAMILTON       FAIR      76  68  76 S10       29.98S
LAMPASAS       FAIR      74  67  79 CALM      29.97S
$$

TXZ095>097-106>112-122>126-135>138-148>153-164>167-191100-
EAST TEXAS

CITY           SKY/WX    TMP DP  RH WIND       PRES   REMARKS
PARIS          FAIR      74  72  93 SE6       29.96F
SULPHUR SPRNGS FAIR      79  74  85 S8        29.98R
MOUNT PLEASANT FAIR      76  72  87 CALM      29.99R
GILMER         FAIR      76  73  91 S3        29.98S THUNDER
MINEOLA        FAIR      77  73  88 S3        29.97R
TYLER          FAIR      77  74  90 S8        29.97S
LONGVIEW       FAIR      77  76  96 S5        29.97S
MARSHALL       FAIR      75  73  92 MISG      30.00S
ATHENS         FAIR      77  72  83 CALM      29.96S
PALESTINE      FAIR      76  74  92 SE3       29.99S
JACKSONVILLE   FAIR      75  74  97 S6        30.01S
HENDERSON      FAIR      76  74  96 CALM      30.00R
CENTER         FAIR      75  73  94 CALM      30.00S
NACOGDOCHES    MOCLDY    75  75 100 E3        30.00R
LUFKIN         FAIR      73  73 100 CALM      29.99R
$$

SUPPLEMENTAL OBSERVATIONS (NWS FORT WORTH AREA)

CITY           SKY/WX    TMP DP  RH WIND       PRES   REMARKS
CADDO GRASSLND   N/A     79  72  78 S7          N/A
LBJ GRASSLAND    N/A     79  72  78 S8          N/A
POSSUM KINGDOM   N/A     81  70  69 S10         N/A
GRANBURY         N/A     79  68  69 S12         N/A
COMANCHE         N/A     77  68  73 S14         N/A
MCGREGOR         N/A     75  70  83 S8          N/A
TEMPLE           N/A     75  70  83 S6          N/A
LAKE LIMESTONE   N/A     75  73  94 S1          N/A
PALESTINE        N/A     75  70  83 S2          N/A
$$

SUPPLEMENTAL OBSERVATIONS (NWS NORMAN AREA)

CITY           SKY/WX    TMP DP  RH WIND       PRES   REMARKS
GOODLETT         N/A     81  62  53 S12       29.86S
ODELL            N/A     80  66  63 S10       29.88R
CROWELL          N/A     81  67  62 S10       29.88S
KNOX CITY        N/A     82  67  61 S13       29.90R
SEYMOUR          N/A     78  66  68 S12       29.88S
MILLERS CREEK    N/A     79  68  69 S10         N/A
$$

SUPPLEMENTAL OBSERVATIONS (NWS SAN ANGELO AREA)

CITY           SKY/WX    TMP DP  RH WIND       PRES   REMARKS
WEINERT          N/A     81  68  64 S13       29.90R
HASKELL          N/A     81  67  63 S14       29.90R
THROCKMORTON     N/A     78  69  73 S9        29.91R
STAMFORD         N/A     80  69  68 S15       29.91S
CLYDE            N/A     75  69  79 S8        29.96S
HAMBY            N/A     79  68  69 S15         N/A
IVIE RESERVOIR   N/A     75  66  73 SE12        N/A
COLORADO BEND    N/A     73  64  73 S7          N/A
$$

SUPPLEMENTAL OBSERVATIONS (NWS SHREVEPORT AREA)

CITY           SKY/WX    TMP DP  RH WIND       PRES   REMARKS
TEXARKANA        N/A     73  72  94 CALM        N/A
LINDEN           N/A     77  73  88 S2          N/A
CADDO LAKE       N/A     75  72  88 CALM        N/A
LUFKIN           N/A     75  72  88 MISG        N/A
N SABINE NF      N/A     75  73  94 MISG        N/A
$$

SUPPLEMENTAL OBSERVATIONS ARE A COLLECTION OF AUTOMATED INSTRUMENTS
THAT ARE MAINTAINED BY A VARIETY OF FEDERAL AND STATE AGENCIES.
CERTAIN ELEMENTS...SUCH AS HUMIDITY VALUES AND SUSTAINED WIND
SPEEDS...MAY BE APPROXIMATED.





USA.gov is the U.S. government's official web portal to all federal, state and local government web resources and services.